Torna al catalogo

MIDAS 3 DEB

AttivoPO
NORAD 196·DEBRIS·🇺🇸 United States

Lanciato Jul 12, 1961 da Vandenberg Space Force Base

Loading…

Prossimi Passaggi (prossime 24 ore)

TLE

AggiornatoSource: Space-Track

Epoca: Sep 14, 2026, 06:12 UTC

1 00196U 61018D   26257.25854876 -.00000002  00000-0 -12363-2 0  9990
2 00196  91.1313 207.2454 0087470 217.8193 141.6509  8.89679700116577

Traccia MIDAS 3 DEB in tempo reale con AllMySat

Download on the App Store